Погода в Новых Аненах

Молдова     46°52′39″N   29°14′19″E
темп.,
°C
ветер,
м/с
пор.,
м/с
влажн.,
%
обл.,
%
осадки,
мм/ч
давл.,
гПа
погр.,
м
6 мая, чт
чт600:00+12ю7155997 0.1 1009530
03:00+10ю61468100 0.1 1008403
06:00+10ю51270100 0.0 1008361
09:00+13ююз5668100 0.0 1010470
12:00+17сз6762100 0.0 10111243
15:00+16ссз675755 0.0 10131213
18:00+17с354967 0.0 10131648
21:00+12ссв226499 0.0 101516
7 мая, пт
пт700:00+10юв22695 0.0 101510
03:00+9юв3381100 0.0 101537
06:00+9юв3581100 0.0 1015119
09:00+12ююв51170100 0.0 1015442
12:00+16ююв61068100 0.3 10131194
15:00+21ю81049100 0.5 10101903
18:00+20ююв71065100 0.9 1008800
21:00+14юв4886100 1.9 1009202
8 мая, сб
сб800:00+13ююв119096 0.1 100818
03:00+12зсз1192100 0.2 100812
06:00+11сз71386100 0.2 1011631
09:00+9ссз61285100 2.1 1014647
12:00+10ссз71064100 0.1 1017833
15:00+13ссз7948100 0.1 10171380
18:00+13ссз5947100 0.0 10171359
21:00+9ссз35630 0.0 101984
9 мая, вс
вс900:00+6ссз411710 0.0 1022351
03:00+5сз34721 0.0 102358
06:00+4зсз22780 0.0 102435
09:00+10ссз35590 0.0 1026638
12:00+14сз45435 0.0 10261806
15:00+16сз3535100 0.0 10262513
18:00+16ссз343580 0.0 10262290
21:00+11в22504 0.0 102711
10 мая, пн
пн1000:00+9юв22554 0.0 102713
03:00+8юв22645 0.0 102715
06:00+7ююв116955 0.0 102710
09:00+13ююв22564 0.0 1028422
12:00+17юв334319 0.0 10271644
15:00+19юв32384 0.0 10251809
18:00+19вюв22402 0.0 10241705
21:00+13вюв33551 0.0 102323